sat.trackr.live / text

‹ back to catalog

ONEWEB-0687

NORAD 61595 · 2024-188B

PAYLOAD ACTIVE UNKNOWN

§ Identity

Operator
Country
UK
Launch date
2024-10-20
Launch site
AFWTR
Launch vehicle
Mass (kg)
RCS (m²)

Purposes: comms

External: N2YO · Heavens-Above · Gunter

§ Orbital elements

Epoch: 2026-09-19T13:02:37.694112Z

Period
109.29 min
Inclination
87.9197°
Eccentricity
0.0001981
Mean motion
13.17651200 rev/d
Perigee alt
1,192.2 km
Apogee alt
1,195.2 km
Semi-major
7,571.8 km
B*
7.8872e-5
RAAN
347.1358°
Arg perigee
115.9196°
Mean anomaly
244.2140°
Rev number
9,832

§ Raw data

ONEWEB-06871 61595U 24188B   26262.54349183  .00000043  00000+0  78872-4 0  99962 61595  87.9197 347.1358 0001981 115.9196 244.2140 13.17651200 98326

JSON: /api/v1/satellites/61595 · /tle

For live sub-satellite position, see the globe view (requires WebGL).

§ Visibility from observer

Set your observer location to see the next 7 days of passes ≥ 10°. The values pass through the URL so the page stays shareable.

No JS? Fill the form by hand. The geolocation button needs JavaScript.